Weather in Matrosy

Russia / Republic of Karelia     61°46′52″N   33°48′46″E
temp.,
°C
wind,
m/s
gust,
m/s
humid.,
%
clouds,
%
prec.,
mm/h
press.,
hPa
HPBL,
m
28 february, sun
sun2800:00−3w2497100 0.1 1016187
03:00−4wsw2396100 0.1 101489
06:00−6sw2398100 0.0 101275
09:00−5s2497100 0.0 1012112
12:00−2ssw249596 0.0 1013266
15:00−1sw249696 0.0 1015395
18:00−1wsw2697100 0.0 1015281
21:000wsw3798100 0.1 1017293
1 march, mon
mon100:000w3896100 0.0 1016358
03:00−1wsw5109699 0.0 1016455
06:000w51197100 0.0 1013617
09:00+1w51197100 0.0 1012646
12:00+1w51297100 0.0 1010799
15:00+2w61499100 0.0 1009865
18:00+1w51296100 0.1 1006776
21:00+1w5129499 0.1 1006872
2 march, tue
tue200:00+1wnw51287100 0.2 10051000
03:00−2w5149068 0.2 1006594
06:00−3w4129215 0.0 1005483
09:00−4w4119416 0.0 1005478
12:00−1wnw499092 0.0 1005605
15:00−1nw598796 0.1 1007857
18:00−2nnw51288100 0.4 10091100
21:00−6nw4138456 0.4 1013568
3 march, wed
wed300:00−7wnw310910 0.0 1014242
03:00−8w37940 0.0 1014157
06:00−8wsw389731 0.0 1012218
09:00−6w4109660 0.0 1011438
12:00−2w499190 0.0 1010587
15:00−1w499095 0.0 1008652
18:00−2wsw4993100 0.0 1003623
21:00−1sw51396100 2.1 998893
4 march, thu
thu400:00+1w71392100 1.6 9921135
03:00−3w5138796 1.6 989786
06:00−5wnw6129490 0.3 989883
09:00−7n8168695 1.8 9921156
12:00−6nnw61186100 0.1 996928
15:00−6nw5986100 0.1 999873
18:00−7nw3990100 0.1 1000765
21:00−9nw31194100 0.2 1002543